Tiempo cada hora Abertridwr

Hoy, 19 Octubre, Lunes

Tiempo Temperatura Precipitaciones Viento Presión Humedad
00:00 +8°C° 0 mm 2 mps 753 mmHg 93%
01:00 +8°C° 0 mm 2 mps 753 mmHg 93%
02:00 +7°C° 0 mm 2 mps 752 mmHg 93%
03:00 +7°C° 0 mm 3 mps 751 mmHg 93%
04:00 +7°C° 0 mm 3 mps 751 mmHg 93%
05:00 +8°C° 0 mm 3 mps 750 mmHg 93%
06:00 +8°C° 0 mm 3 mps 750 mmHg 93%
07:00 +8°C° 0 mm 4 mps 749 mmHg 91%
08:00 +9°C° 0 mm 5 mps 749 mmHg 89%
09:00 +10°C° 0 mm 6 mps 749 mmHg 87%
10:00 +10°C° 0 mm 6 mps 748 mmHg 85%
11:00 +11°C° 0 mm 7 mps 747 mmHg 82%
12:00 +12°C° 0 mm 7 mps 747 mmHg 80%
13:00 +11°C° 0 mm 7 mps 746 mmHg 79%
14:00 +11°C° 0 mm 7 mps 745 mmHg 78%
15:00 +11°C° 0 mm 7 mps 744 mmHg 78%
16:00 +10°C° 0 mm 6 mps 744 mmHg 78%
17:00 +10°C° 0 mm 5 mps 743 mmHg 79%
18:00 +9°C° 0 mm 5 mps 742 mmHg 80%
19:00 +9°C° 0 mm 5 mps 742 mmHg 79%
20:00 +9°C° 0 mm 6 mps 741 mmHg 79%
21:00 +9°C° 0 mm 7 mps 740 mmHg 78%
22:00 +10°C° 0.2 mm 7 mps 740 mmHg 82%
23:00 +10°C° 0.2 mm 7 mps 739 mmHg 86%

Mañana, 20 Octubre, Martes

Tiempo Temperatura Precipitaciones Viento Presión Humedad
00:00 +10°C° 0.2 mm 7 mps 738 mmHg 90%
01:00 +11°C° 0.3 mm 7 mps 738 mmHg 90%
02:00 +12°C° 0.3 mm 7 mps 737 mmHg 91%
03:00 +13°C° 0.3 mm 8 mps 737 mmHg 91%
04:00 +12°C° 0.1 mm 7 mps 737 mmHg 92%
05:00 +11°C° 0.1 mm 7 mps 737 mmHg 93%
06:00 +11°C° 0.1 mm 6 mps 737 mmHg 94%
07:00 +11°C° 0 mm 7 mps 737 mmHg 92%
08:00 +12°C° 0 mm 7 mps 737 mmHg 89%
09:00 +12°C° 0 mm 7 mps 738 mmHg 87%
10:00 +13°C° 0.2 mm 8 mps 738 mmHg 85%
11:00 +13°C° 0.2 mm 9 mps 738 mmHg 84%
12:00 +15°C° 0.2 mm 9 mps 738 mmHg 82%
13:00 +15°C° 0.3 mm 9 mps 738 mmHg 82%
14:00 +15°C° 0.3 mm 9 mps 737 mmHg 82%
15:00 +15°C° 0.3 mm 9 mps 737 mmHg 81%
16:00 +13°C° 0.3 mm 8 mps 737 mmHg 84%
17:00 +13°C° 0.3 mm 8 mps 737 mmHg 87%
18:00 +12°C° 0.3 mm 7 mps 737 mmHg 89%
19:00 +13°C° 0.1 mm 6 mps 737 mmHg 90%
20:00 +13°C° 0.1 mm 6 mps 737 mmHg 90%
21:00 +13°C° 0.1 mm 5 mps 737 mmHg 91%
22:00 +13°C° 0 mm 5 mps 737 mmHg 92%
23:00 +12°C° 0 mm 4 mps 736 mmHg 93%

Pasado mañana, 21 Octubre, Miércoles

Tiempo Temperatura Precipitaciones Viento Presión Humedad
00:00 +12°C° 0 mm 3 mps 736 mmHg 95%
01:00 +12°C° 0.4 mm 3 mps 735 mmHg 96%
02:00 +13°C° 0.4 mm 2 mps 735 mmHg 97%
03:00 +13°C° 0.4 mm 2 mps 734 mmHg 98%
04:00 +13°C° 0.6 mm 1 mps 734 mmHg 97%
05:00 +13°C° 0.6 mm 1 mps 734 mmHg 96%
06:00 +12°C° 0.6 mm 1 mps 733 mmHg 95%
07:00 +12°C° 0.2 mm 2 mps 734 mmHg 95%
08:00 +11°C° 0.2 mm 3 mps 735 mmHg 95%
09:00 +12°C° 0.2 mm 4 mps 735 mmHg 94%
10:00 +12°C° 0.5 mm 5 mps 736 mmHg 93%
11:00 +13°C° 0.5 mm 6 mps 737 mmHg 91%
12:00 +12°C° 0.5 mm 7 mps 738 mmHg 90%
13:00 +13°C° 0.4 mm 6 mps 738 mmHg 91%
14:00 +13°C° 0.4 mm 5 mps 738 mmHg 93%
15:00 +13°C° 0.4 mm 4 mps 738 mmHg 94%
16:00 +13°C° 0.3 mm 4 mps 739 mmHg 95%
17:00 +13°C° 0.3 mm 3 mps 739 mmHg 96%
18:00 +12°C° 0.3 mm 3 mps 740 mmHg 97%
19:00 +12°C° 0.1 mm 3 mps 740 mmHg 96%
20:00 +12°C° 0.1 mm 3 mps 741 mmHg 96%
21:00 +12°C° 0.1 mm 3 mps 741 mmHg 96%
22:00 +11°C° 0 mm 3 mps 742 mmHg 96%
23:00 +11°C° 0 mm 3 mps 742 mmHg 96%

22 Octubre, Jueves

Tiempo Temperatura Precipitaciones Viento Presión Humedad
00:00 +10°C° 0 mm 3 mps 743 mmHg 96%
01:00 +10°C° 0 mm 3 mps 743 mmHg 96%
02:00 +10°C° 0 mm 3 mps 743 mmHg 96%
03:00 +10°C° 0 mm 2 mps 743 mmHg 97%
04:00 +10°C° 0 mm 2 mps 744 mmHg 96%
05:00 +10°C° 0 mm 2 mps 744 mmHg 96%
06:00 +10°C° 0 mm 2 mps 744 mmHg 96%
07:00 +10°C° 0 mm 2 mps 745 mmHg 94%
08:00 +12°C° 0 mm 2 mps 745 mmHg 93%
09:00 +12°C° 0 mm 2 mps 745 mmHg 92%
10:00 +13°C° 0 mm 2 mps 745 mmHg 89%
11:00 +14°C° 0 mm 2 mps 745 mmHg 85%
12:00 +14°C° 0 mm 2 mps 746 mmHg 82%
13:00 +14°C° 0.1 mm 1 mps 745 mmHg 81%
14:00 +14°C° 0.1 mm 1 mps 745 mmHg 80%
15:00 +14°C° 0.1 mm 1 mps 745 mmHg 79%
16:00 +13°C° 0.1 mm 1 mps 745 mmHg 83%
17:00 +12°C° 0.1 mm 1 mps 745 mmHg 87%
18:00 +10°C° 0.1 mm 0 mps 745 mmHg 91%
19:00 +11°C° 0 mm 1 mps 745 mmHg 92%
20:00 +10°C° 0 mm 1 mps 745 mmHg 92%
21:00 +10°C° 0 mm 1 mps 745 mmHg 93%
22:00 +10°C° 0 mm 1 mps 745 mmHg 94%
23:00 +9°C° 0 mm 2 mps 745 mmHg 95%

23 Octubre, Viernes

Tiempo Temperatura Precipitaciones Viento Presión Humedad
00:00 +8°C° 0 mm 2 mps 745 mmHg 96%
01:00 +9°C° 0 mm 2 mps 745 mmHg 96%
02:00 +9°C° 0 mm 2 mps 745 mmHg 96%
03:00 +9°C° 0 mm 2 mps 745 mmHg 96%
04:00 +9°C° 0 mm 2 mps 745 mmHg 95%
05:00 +8°C° 0 mm 2 mps 745 mmHg 95%
06:00 +8°C° 0 mm 2 mps 745 mmHg 95%
07:00 +9°C° 0 mm 2 mps 745 mmHg 92%
08:00 +9°C° 0 mm 2 mps 746 mmHg 88%
09:00 +10°C° 0 mm 2 mps 746 mmHg 85%
10:00 +10°C° 0.1 mm 4 mps 746 mmHg 83%
11:00 +10°C° 0.1 mm 5 mps 746 mmHg 82%
12:00 +10°C° 0.1 mm 6 mps 746 mmHg 80%
13:00 +10°C° 0 mm 6 mps 747 mmHg 80%
14:00 +10°C° 0 mm 6 mps 747 mmHg 79%
15:00 +10°C° 0 mm 6 mps 747 mmHg 79%
16:00 +10°C° 0 mm 6 mps 747 mmHg 83%
17:00 +10°C° 0 mm 5 mps 747 mmHg 86%
18:00 +9°C° 0 mm 5 mps 747 mmHg 89%
19:00 +9°C° 0.1 mm 5 mps 748 mmHg 90%
20:00 +10°C° 0.1 mm 4 mps 748 mmHg 91%
21:00 +10°C° 0.1 mm 4 mps 748 mmHg 92%
22:00 +10°C° 0.1 mm 4 mps 748 mmHg 92%
23:00 +10°C° 0.1 mm 4 mps 748 mmHg 93%

24 Octubre, Sábado

Tiempo Temperatura Precipitaciones Viento Presión Humedad
00:00 +10°C° 0.1 mm 3 mps 748 mmHg 94%
01:00 +10°C° 0.2 mm 4 mps 747 mmHg 94%
02:00 +9°C° 0.2 mm 5 mps 747 mmHg 94%
03:00 +10°C° 0.2 mm 6 mps 747 mmHg 94%
04:00 +10°C° 0.1 mm 6 mps 746 mmHg 93%
05:00 +10°C° 0.1 mm 7 mps 746 mmHg 92%
06:00 +11°C° 0.1 mm 8 mps 746 mmHg 91%
07:00 +11°C° 0.1 mm 7 mps 746 mmHg 91%
08:00 +11°C° 0.1 mm 7 mps 746 mmHg 91%
09:00 +11°C° 0.1 mm 7 mps 745 mmHg 91%
10:00 +12°C° 0.1 mm 8 mps 745 mmHg 89%
11:00 +13°C° 0.1 mm 8 mps 745 mmHg 88%
12:00 +13°C° 0.1 mm 9 mps 745 mmHg 87%
13:00 +13°C° 0.1 mm 9 mps 745 mmHg 87%
14:00 +13°C° 0.1 mm 9 mps 744 mmHg 87%
15:00 +12°C° 0.1 mm 9 mps 744 mmHg 87%
16:00 +12°C° 0.1 mm 9 mps 743 mmHg 87%
17:00 +12°C° 0.1 mm 10 mps 743 mmHg 88%
18:00 +12°C° 0.1 mm 10 mps 743 mmHg 88%
19:00 +12°C° 0.1 mm 10 mps 742 mmHg 89%
20:00 +12°C° 0.1 mm 10 mps 742 mmHg 89%
21:00 +12°C° 0.1 mm 10 mps 742 mmHg 90%
22:00 +12°C° 1.5 mm 9 mps 742 mmHg 91%
23:00 +11°C° 1.5 mm 8 mps 742 mmHg 93%

25 Octubre, Domingo

Tiempo Temperatura Precipitaciones Viento Presión Humedad
00:00 +11°C° 1.5 mm 7 mps 741 mmHg 94%
01:00 +10°C° 1.1 mm 6 mps 741 mmHg 94%
02:00 +10°C° 1.1 mm 5 mps 741 mmHg 95%
03:00 +10°C° 1.1 mm 3 mps 741 mmHg 95%
04:00 +10°C° 0.8 mm 3 mps 741 mmHg 95%
05:00 +10°C° 0.8 mm 3 mps 741 mmHg 95%
06:00 +10°C° 0.8 mm 2 mps 741 mmHg 95%
07:00 +10°C° 1.2 mm 2 mps 741 mmHg 95%
08:00 +10°C° 1.2 mm 1 mps 741 mmHg 95%
09:00 +10°C° 1.2 mm 1 mps 740 mmHg 95%
10:00 +10°C° 1.7 mm 1 mps 740 mmHg 95%
11:00 +10°C° 1.7 mm 1 mps 740 mmHg 95%
12:00 +9°C° 1.7 mm 2 mps 740 mmHg 95%
13:00 +9°C° 1.4 mm 2 mps 740 mmHg 92%
14:00 +8°C° 1.4 mm 3 mps 740 mmHg 89%
15:00 +7°C° 1.4 mm 4 mps 740 mmHg 86%
16:00 +8°C° 0.3 mm 3 mps 740 mmHg 87%
17:00 +7°C° 0.3 mm 2 mps 740 mmHg 89%
18:00 +8°C° 0.3 mm 1 mps 740 mmHg 90%
19:00 +7°C° 0 mm 2 mps 741 mmHg 90%
20:00 +7°C° 0 mm 2 mps 741 mmHg 90%
21:00 +7°C° 0 mm 3 mps 742 mmHg 91%
22:00 +7°C° 0 mm 3 mps 742 mmHg 91%
23:00 +5°C° 0 mm 3 mps 742 mmHg 92%
Mostrar más

Necesitamos Su Consentimiento

Meteoprog y nuestros Proveedores de Servicios pueden almacenar y acceder a sus datos personales como cookies, identificadores de dispositivo u otras tecnologías similares de su dispositivo y procesar dichos datos para personalizar contenido y anuncios, además de ofrecer funciones de redes sociales y analizar el tráfico.

  • Almacenar y/o acceder a información en su dispositivo

    Se puede almacenar o acceder a cookies, identificadores de dispositivo u otra información de su dispositivo para los fines anteriormente indicados.

  • Anuncios y contenido personalizados, medición de anuncios y contenido, percepciones del público, y desarrollo de productos

    Los anuncios y el contenido pueden personalizarse en base a su perfil. Se pueden añadir más datos para personalizar mejor los anuncios y contenidos. Se puede medir el rendimiento de los anuncios y contenidos. Se puede obtener la percepción sobre el público que ha visto los anuncios y contenidos. Dichos datos pueden usarse para desarrollar o mejorar la experiencia del usuario, sistemas y software.

Al hacer clic en ‘Estoy De Acuerdo’ usted permitirá el uso de las cookies, identificadores de dispositivo, balizas web u otras tecnologías similares indicadas. Su configuración puede cambiarse desde el navegador de su dispositivo.

Para ciertos fines, los intereses legítimos pueden ser considerados por encima del consentimiento. Puede leer más sobre ello en nuestra Política de Privacidad y Cookies.